Grey Islet, British Columbia

5:42 AM PDT on March 24, 2017 (GMT -0700)
Grey Islet

Weather History for CWEK - November, 2012

Change the Weather History Date:

Saturday, November 17, 2012

  Actual Average Record
Temperature  
Mean Temperature 42 °F -  
Max Temperature 46 °F - - ()
Min Temperature 39 °F - - ()
Degree Days  
Heating Degree Days 22    
Moisture  
Dew Point 39 °F    
Average Humidity 85    
Maximum Humidity 94    
Minimum Humidity 78    
Precipitation  
Precipitation 0.24 in - - ()
Sea Level Pressure  
Sea Level Pressure 29.04 in    
Wind  
Wind Speed 25 mph ()    
Max Wind Speed 40 mph    
Max Gust Speed 43 mph    
T = Trace of Precipitation, MM = Missing Value Source: Averaged Metar Reports

Daily Weather History Graph

Daily Weather History Graph

Search for Another Location

Airport or City:

Trip Planner

Search our weather history database for the weather conditions in past years. The results will help you decide how hot, cold, wet, or windy it might be!

Date:

Astronomy

Nov. 17, 2012 Rise Set
Actual Time 8:18 AM PST 4:37 PM PST
Civil Twilight 7:37 AM PST 5:17 PM PST
Nautical Twilight 6:52 AM PST 6:02 PM PST
Astronomical Twilight 6:10 AM PST 6:44 PM PST
Moon 12:07 PM PST (11/17) 8:58 PM PST (11/17)
Length of Visible Light 9h 40m
Length of Day
8h 18m
Waxing Crescent, 21% of the Moon is Illuminated
Nov 17
Waxing Crescent
Nov 20
First Quarter
Nov 28
Full
Dec 6
Last Quarter
Dec 13
New

Hourly Weather History & Observations

Time (PST) Temp. Windchill Dew Point Humidity Pressure Visibility Wind Dir Wind Speed Gust Speed Precip Events Conditions
12:00 AM 42.8 °F 33.5 °F 39.6 °F 88% 29.34 in - NE 23.0 mph - N/A   Unknown
1:00 AM 42.1 °F 31.7 °F 38.8 °F 88% 29.31 in - NE 27.6 mph - N/A   Unknown
2:00 AM 42.3 °F 31.4 °F 39.0 °F 88% 29.27 in - NE 31.1 mph - N/A   Unknown
3:00 AM 41.9 °F 31.1 °F 38.7 °F 88% 29.25 in - NE 29.9 mph - N/A   Unknown
4:00 AM 42 °F - 38 °F 82% 29.19 in - NE 32.2 mph - -  
4:00 AM 42.1 °F 31.0 °F 38.3 °F 86% 29.19 in - NE 32.2 mph 40.3 mph N/A   Unknown
5:00 AM 42.1 °F 30.1 °F 37.4 °F 83% 29.13 in - NE 38.0 mph - N/A   Unknown
6:00 AM 42.8 °F 30.8 °F 37.8 °F 82% 29.08 in - NE 40.3 mph - N/A   Unknown
7:00 AM 43.3 °F 31.9 °F 37.2 °F 79% 29.03 in - NE 38.0 mph - N/A   Unknown
8:00 AM 42.8 °F 31.4 °F 37.9 °F 83% 29.05 in - ENE 35.7 mph 42.6 mph N/A   Unknown
9:00 AM 42.6 °F 33.1 °F 38.8 °F 86% 29.04 in - NE 24.2 mph 29.9 mph 0.10 in   Unknown
10:00 AM 43 °F - 39 °F 80% 29.01 in - NE 27.6 mph - -  
10:00 AM 42.6 °F 32.4 °F 38.8 °F 86% 29.01 in - NE 27.6 mph - 0.05 in   Unknown
11:00 AM 43.5 °F 33.8 °F 39.2 °F 85% 29.01 in - ENE 26.5 mph - N/A   Unknown
12:00 PM 44.1 °F 35.9 °F 39.7 °F 85% 29.00 in - ENE 19.6 mph - N/A   Unknown
1:00 PM 44.6 °F 37.8 °F 39.6 °F 82% 29.01 in - ENE 15.0 mph 21.9 mph N/A   Unknown
2:00 PM 43.9 °F 35.4 °F 39.0 °F 83% 28.96 in - NE 20.7 mph 27.6 mph N/A   Unknown
3:00 PM 43.0 °F 33.1 °F 39.0 °F 86% 28.91 in - NE 26.5 mph 34.5 mph N/A   Unknown
4:00 PM 44 °F - 39 °F 78% 28.86 in - NE 28.8 mph - -  
4:00 PM 43.7 °F 33.7 °F 39.4 °F 85% 28.86 in - NE 28.8 mph - N/A   Unknown
5:00 PM 43.5 °F 32.9 °F 38.7 °F 83% 28.83 in - NE 32.2 mph - N/A   Unknown
6:00 PM 43.2 °F 33.2 °F 39.2 °F 86% 28.83 in - NE 27.6 mph 33.4 mph 0.02 in   Unknown
7:00 PM 41.7 °F 33.7 °F 38.5 °F 88% 28.88 in - ENE 16.1 mph - 0.10 in   Unknown
8:00 PM 39.9 °F - 37.6 °F 91% 28.92 in - NW 1.2 mph - 0.11 in   Unknown
9:00 PM 41.0 °F 33.1 °F 39.4 °F 94% 29.00 in - SW 15.0 mph - 0.01 in   Unknown
10:00 PM 43 °F - 40 °F 84% 29.06 in - South 27.6 mph - -  
10:00 PM 43.0 °F 32.9 °F 39.7 °F 88% 29.06 in - South 27.6 mph - N/A   Unknown
11:00 PM 43.5 °F 34.5 °F 40.1 °F 88% 29.09 in - South 23.0 mph - N/A   Unknown